TimeEDT,TemperatureF,Dew PointF,Humidity,Sea Level PressureIn,VisibilityMPH,Wind Direction,Wind SpeedMPH,Gust SpeedMPH,PrecipitationIn,Events,Conditions,WindDirDegrees,DateUTC
12:15 AM,73.4,73.4,100,29.95,7.0,Calm,Calm,-,N/A,,Clear,0,2013-08-31 04:15:00
12:35 AM,73.4,73.4,100,29.95,7.0,Calm,Calm,-,N/A,,Clear,0,2013-08-31 04:35:00
12:55 AM,73.4,73.4,100,29.95,7.0,Calm,Calm,-,N/A,,Clear,0,2013-08-31 04:55:00
1:15 AM,73.4,73.4,100,29.95,7.0,Calm,Calm,-,N/A,,Clear,0,2013-08-31 05:15:00
1:35 AM,73.4,73.4,100,29.95,7.0,Calm,Calm,-,N/A,,Clear,0,2013-08-31 05:35:00
1:55 AM,73.4,73.4,100,29.94,5.0,Calm,Calm,-,N/A,,Clear,0,2013-08-31 05:55:00
2:15 AM,73.4,73.4,100,29.94,5.0,Calm,Calm,-,N/A,,Clear,0,2013-08-31 06:15:00
2:35 AM,73.4,73.4,100,29.94,7.0,Calm,Calm,-,N/A,,Mostly Cloudy,0,2013-08-31 06:35:00
2:55 AM,73.4,73.4,100,29.93,5.0,Calm,Calm,-,N/A,,Overcast,0,2013-08-31 06:55:00
3:15 AM,73.4,73.4,100,29.93,4.0,Calm,Calm,-,N/A,,Overcast,0,2013-08-31 07:15:00
3:35 AM,73.4,73.4,100,29.92,4.0,Calm,Calm,-,N/A,,Overcast,0,2013-08-31 07:35:00
3:55 AM,73.4,73.4,100,29.92,5.0,Calm,Calm,-,N/A,,Overcast,0,2013-08-31 07:55:00
4:15 AM,75.2,75.2,100,29.92,4.0,Calm,Calm,-,N/A,,Overcast,0,2013-08-31 08:15:00
4:35 AM,75.2,75.2,100,29.93,3.0,ENE,3.5,-,N/A,,Overcast,70,2013-08-31 08:35:00
4:55 AM,77.0,77.0,100,29.92,1.5,Calm,Calm,-,N/A,,Overcast,0,2013-08-31 08:55:00
5:15 AM,77.0,77.0,100,29.93,0.5,Calm,Calm,-,N/A,Fog,Fog,0,2013-08-31 09:15:00
5:35 AM,77.0,77.0,100,29.93,0.5,Calm,Calm,-,N/A,Fog,Fog,0,2013-08-31 09:35:00
5:55 AM,77.0,77.0,100,29.93,0.5,ENE,3.5,-,N/A,Fog,Fog,70,2013-08-31 09:55:00
6:15 AM,77.0,77.0,100,29.94,0.5,Calm,Calm,-,N/A,Fog,Fog,0,2013-08-31 10:15:00
6:35 AM,77.0,77.0,100,29.95,1.0,Calm,Calm,-,N/A,,Overcast,0,2013-08-31 10:35:00
6:55 AM,77.0,77.0,100,29.95,1.5,Calm,Calm,-,N/A,,Overcast,0,2013-08-31 10:55:00
7:15 AM,77.0,77.0,100,29.95,0.5,East,4.6,-,N/A,Fog,Fog,80,2013-08-31 11:15:00
7:35 AM,77.0,77.0,100,29.96,0.2,Calm,Calm,-,N/A,Fog,Fog,0,2013-08-31 11:35:00
7:55 AM,77.0,77.0,100,29.97,0.5,Calm,Calm,-,N/A,Fog,Fog,0,2013-08-31 11:55:00
8:15 AM,77.0,75.2,94,29.97,0.8,East,3.5,-,N/A,,Overcast,80,2013-08-31 12:15:00
8:35 AM,77.0,73.4,89,29.97,2.0,ENE,3.5,-,N/A,,Overcast,60,2013-08-31 12:35:00
8:55 AM,77.0,73.4,89,29.97,3.0,Calm,Calm,-,N/A,,Overcast,0,2013-08-31 12:55:00
9:15 AM,77.0,73.4,89,29.98,5.0,East,3.5,-,N/A,,Overcast,80,2013-08-31 13:15:00
9:35 AM,78.8,69.8,74,29.99,7.0,Calm,Calm,-,N/A,,Overcast,0,2013-08-31 13:35:00
9:55 AM,78.8,53.6,42,29.99,7.0,Calm,Calm,-,N/A,,Overcast,0,2013-08-31 13:55:00
10:15 AM,80.6,73.4,79,29.99,7.0,Calm,Calm,-,N/A,,Mostly Cloudy,0,2013-08-31 14:15:00
10:35 AM,82.4,71.6,70,29.99,7.0,ENE,4.6,-,N/A,,Mostly Cloudy,70,2013-08-31 14:35:00
10:55 AM,82.4,55.4,39,29.99,10.0,ENE,3.5,-,N/A,,Mostly Cloudy,60,2013-08-31 14:55:00
11:15 AM,84.2,60.8,45,29.99,10.0,Calm,Calm,-,N/A,,Mostly Cloudy,0,2013-08-31 15:15:00
11:35 AM,86.0,60.8,43,29.99,10.0,Calm,Calm,-,N/A,,Mostly Cloudy,0,2013-08-31 15:35:00
11:55 AM,84.2,55.4,37,29.98,10.0,SSE,3.5,-,N/A,,Mostly Cloudy,160,2013-08-31 15:55:00
12:15 PM,86.0,62.6,45,29.98,10.0,Calm,Calm,-,N/A,,Scattered Clouds,0,2013-08-31 16:15:00
12:35 PM,87.8,73.4,62,29.97,10.0,Calm,Calm,-,N/A,,Scattered Clouds,0,2013-08-31 16:35:00
12:55 PM,87.8,71.6,58,29.97,10.0,Calm,Calm,-,N/A,,Scattered Clouds,0,2013-08-31 16:55:00
1:15 PM,89.6,73.4,59,29.96,10.0,South,3.5,-,N/A,,Mostly Cloudy,170,2013-08-31 17:15:00
1:35 PM,87.8,71.6,58,29.96,10.0,Calm,Calm,-,N/A,Thunderstorm,Scattered Clouds,0,2013-08-31 17:35:00
1:55 PM,89.6,73.4,59,29.95,10.0,Calm,Calm,-,N/A,,Scattered Clouds,0,2013-08-31 17:55:00
2:15 PM,89.6,73.4,59,29.95,10.0,Calm,Calm,-,N/A,,Scattered Clouds,0,2013-08-31 18:15:00
2:35 PM,91.4,73.4,55,29.94,10.0,Calm,Calm,-,N/A,,Scattered Clouds,0,2013-08-31 18:35:00
2:55 PM,91.4,73.4,55,29.93,10.0,Calm,Calm,-,N/A,,Clear,0,2013-08-31 18:55:00
3:15 PM,91.4,73.4,55,29.92,10.0,WSW,4.6,-,N/A,,Clear,250,2013-08-31 19:15:00
3:35 PM,91.4,71.6,52,29.91,10.0,Calm,Calm,-,N/A,,Clear,0,2013-08-31 19:35:00
3:55 PM,91.4,73.4,55,29.90,10.0,Calm,Calm,-,N/A,,Clear,0,2013-08-31 19:55:00
4:15 PM,89.6,73.4,59,29.89,10.0,Calm,Calm,-,N/A,Thunderstorm,Thunderstorm,0,2013-08-31 20:15:00
4:35 PM,89.6,71.6,55,29.89,10.0,Calm,Calm,-,N/A,Thunderstorm,Scattered Clouds,0,2013-08-31 20:35:00
4:55 PM,84.2,73.4,70,29.91,10.0,SE,9.2,-,N/A,,Mostly Cloudy,140,2013-08-31 20:55:00
5:15 PM,82.4,73.4,74,29.91,10.0,SSE,6.9,-,N/A,Rain,Light Rain,150,2013-08-31 21:15:00
5:35 PM,84.2,73.4,70,29.90,10.0,SE,3.5,-,N/A,,Scattered Clouds,130,2013-08-31 21:35:00
5:55 PM,86.0,73.4,66,29.90,10.0,Calm,Calm,-,N/A,,Clear,0,2013-08-31 21:55:00
6:15 PM,86.0,73.4,66,29.90,10.0,Calm,Calm,-,N/A,,Scattered Clouds,0,2013-08-31 22:15:00
6:35 PM,86.0,73.4,66,29.90,10.0,Calm,Calm,-,N/A,,Scattered Clouds,0,2013-08-31 22:35:00
6:55 PM,84.2,73.4,70,29.91,10.0,ESE,5.8,-,N/A,,Clear,110,2013-08-31 22:55:00
7:15 PM,82.4,73.4,74,29.91,10.0,Calm,Calm,-,N/A,,Clear,0,2013-08-31 23:15:00
7:35 PM,80.6,73.4,79,29.92,10.0,Calm,Calm,-,N/A,,Clear,0,2013-08-31 23:35:00
7:55 PM,80.6,73.4,79,29.92,10.0,Calm,Calm,-,N/A,,Clear,0,2013-08-31 23:55:00
8:15 PM,78.8,75.2,89,29.92,10.0,Calm,Calm,-,N/A,,Clear,0,2013-09-01 00:15:00
8:35 PM,78.8,77.0,94,29.92,10.0,Calm,Calm,-,N/A,,Clear,0,2013-09-01 00:35:00
8:55 PM,78.8,77.0,94,29.92,10.0,Calm,Calm,-,N/A,,Clear,0,2013-09-01 00:55:00
9:15 PM,78.8,77.0,94,29.93,10.0,Calm,Calm,-,N/A,,Clear,0,2013-09-01 01:15:00
9:35 PM,77.0,77.0,100,29.93,10.0,Calm,Calm,-,N/A,,Clear,0,2013-09-01 01:35:00
9:55 PM,77.0,77.0,100,29.95,10.0,Calm,Calm,-,N/A,,Clear,0,2013-09-01 01:55:00
10:15 PM,77.0,77.0,100,29.94,10.0,Calm,Calm,-,N/A,,Clear,0,2013-09-01 02:15:00
10:35 PM,77.0,77.0,100,29.93,10.0,Calm,Calm,-,N/A,,Clear,0,2013-09-01 02:35:00
10:55 PM,77.0,77.0,100,29.93,7.0,Calm,Calm,-,N/A,,Clear,0,2013-09-01 02:55:00
11:15 PM,77.0,77.0,100,29.93,10.0,Calm,Calm,-,N/A,,Clear,0,2013-09-01 03:15:00
11:35 PM,77.0,77.0,100,29.93,7.0,Calm,Calm,-,N/A,,Clear,0,2013-09-01 03:35:00
11:55 PM,77.0,77.0,100,29.93,10.0,Calm,Calm,-,N/A,,Clear,0,2013-09-01 03:55:00